GPS BIIRM-1 (PRN 17)

Last updated on Wed Sep 17 2025 00:03:17 GMT+0000 (Coordinated Universal Time)

1 28874U 05038A 25259.13284591 .00000008 00000+0 00000+0 0 9997 2 28874 55.1056 284.2271 0133734 291.3458 66.1727 2.00553965146333
UTC large
Height (km)
Speed (km/s)
/
Latitude / Longitude
Inclination (degrees)
Orbital Period (minutes)
Azimuth
Elevation
Range (km)
Doppler Factor

Next 0 passes for location: London (51.5072 / 0.1276)

Sorry there are no passes over London.